Vorticity
4 2 2 5 -0 9 14 12 3 9 3 12 15 21 2 15 8 13 20 7 13 13 16 12 10 24 13 4 5 2 3 7 5 7 3 14 19 -1 18 36 -17 2 4 5 -1
1 4 0 4 7 14 13 10 3 9 19 17 10 16 3 2 11 16 22 19 4 12 10 11 18 10 10 10 9 -0 5 5 -2 -3 13 17 13 -7 -16 5 14 3 6 3 5
2 2 3 0 6 9 22 5 5 18 6 19 11 12 4 8 8 11 22 16 1 18 9 13 16 7 8 -1 8 6 9 4 2 5 3 3 6 43 32 26 9 17 11 3 6
4 3 2 2 6 11 17 13 10 9 11 16 18 -1 -2 15 -3 22 14 8 13 11 2 3 20 8 9 10 10 16 5 4 -2 5 7 47 31 7 8 10 6 12 7 2 4
3 2 2 -1 6 13 18 10 7 3 11 15 11 0 7 20 3 19 7 8 7 8 10 5 13 14 27 19 13 4 18 5 13 35 6 5 5 10 1 3 6 4 4 4 8
5 4 4 -1 5 20 12 8 -1 11 23 13 10 4 3 7 15 15 16 3 8 11 16 14 13 22 6 -0 4 3 -4 6 54 -1 4 6 10 -0 7 7 5 4 8 9 5
2 1 5 5 6 24 14 5 7 22 21 11 11 17 7 9 15 10 10 9 13 19 20 18 10 5 -7 7 19 15 16 -0 -3 2 -1 15 11 7 0 4 1 5 9 8 5
4 1 5 2 8 20 11 -0 28 14 11 5 14 10 6 13 13 13 10 8 7 3 5 10 16 19 20 5 0 3 1 4 7 3 1 5 9 4 4 5 5 6 9 10 4
5 4 10 3 14 11 13 11 19 13 14 14 19 13 8 7 10 7 10 22 -1 16 23 13 9 -1 2 7 -10 2 6 15 18 15 4 9 14 -2 6 2 7 6 9 6 3
2 4 8 3 21 16 10 14 15 13 13 13 6 6 9 5 16 2 9 3 22 -2 10 -6 6 -1 5 6 5 3 -2 9 15 12 6 11 1 -1 2 3 6 4 7 5 0
3 3 2 9 14 13 12 18 13 16 16 8 8 10 10 49 15 -2 10 2 23 -7 16 -3 -4 -2 18 1 1 6 5 5 11 12 10 8 8 6 15 2 6 6 5 9 6
5 3 3 8 13 12 3 7 11 7 6 8 5 6 13 16 10 10 1 0 15 -13 -5 -13 8 15 9 3 4 6 17 3 -0 6 -1 5 2 3 4 6 7 5 8 7 8
4 6 0 12 15 7 7 5 5 4 6 11 12 22 17 14 2 8 1 -2 24 7 16 15 13 -3 -8 2 0 9 4 -4 6 2 14 10 5 8 12 16 10 12 5 5 3
3 8 5 12 16 7 9 0 13 21 16 19 21 14 14 17 9 9 4 2 14 6 -4 3 0 5 -5 10 -2 10 5 -2 1 10 0 3 5 7 5 0 5 4 3 5 7
1 6 6 13 5 9 9 12 18 17 13 20 9 13 14 13 16 14 18 0 -3 -6 2 7 -1 19 11 4 15 6 29 -4 -4 -6 -7 -6 6 11 0 1 4 4 6 6 10
2 4 8 9 7 7 13 18 15 17 4 7 7 8 13 14 8 9 21 4 -1 4 -3 0 -8 -5 1 11 13 0 16 9 -4 4 15 12 6 13 5 5 6 4 10 9 7
3 5 7 8 7 7 16 10 15 11 3 7 12 9 9 7 11 13 8 11 8 5 -0 2 5 -1 17 15 16 14 -1 5 12 13 12 10 11 11 -0 8 14 12 10 9 8
3 7 5 7 9 13 11 10 11 11 13 8 7 6 8 13 13 9 8 9 10 11 -1 7 9 17 7 7 7 -5 0 8 5 5 5 8 12 15 14 11 11 12 18 13 11
3 7 5 7 7 17 9 10 15 4 3 4 6 7 7 11 10 12 13 14 14 14 17 14 11 3 6 7 10 12 7 7 5 9 14 16 15 16 14 18 18 11 6 6 5
4 8 4 11 5 16 9 14 8 6 5 5 5 6 5 8 7 7 5 4 5 5 6 9 7 8 8 8 9 6 6 8 9 17 12 18 11 9 8 4 6 6 3 2 3
2 5 2 11 7 12 12 9 2 5 6 6 6 4 4 3 3 3 5 6 5 6 6 6 8 10 9 8 7 13 17 17 14 10 10 4 5 -0 6 5 2 3 5 5 3
2 3 8 9 9 15 12 4 1 5 6 6 2 3 3 2 2 2 2 4 5 6 7 7 6 6 7 11 13 15 10 9 7 8 3 4 4 10 3 6 6 6 4 4 3
6 8 5 10 10 14 7 4 4 4 4 2 3 3 6 7 9 12 10 11 9 12 11 9 15 18 13 15 10 8 10 6 8 6 2 4 6 1 2 3 2 3 4 3 4
6 -1 7 7 18 10 3 3 6 6 3 2 7 4 12 14 15 12 12 13 13 10 12 11 11 13 11 8 9 10 5 6 4 4 1 0 2 3 2 1 2 2 3 4 4
7 1 -1 10 16 7 3 4 6 3 4 3 -0 5 12 13 12 15 12 12 10 9 10 10 10 8 8 10 8 6 5 4 5 3 3 0 0 2 3 3 3 3 2 4 4
5 3 7 14 16 4 2 4 5 4 5 1 1 6 10 13 10 10 13 13 12 15 11 8 7 7 6 8 8 4 5 4 5 7 4 4 2 3 1 1 2 3 5 5 4
7 4 8 13 12 3 3 6 2 4 0 0 1 3 8 12 13 11 14 16 18 11 12 7 5 8 8 6 6 6 9 6 3 2 2 1 1 1 2 3 4 4 4 5 6
Height
5816 5812 5810 5807 5803 5798 5793 5788 5786 5783 5780 5778 5777 5775 5775 5775 5773 5771 5769 5773 5774 5775 5775 5778 5781 5783 5788 5793 5797 5802 5806 5807 5807 5808 5808 5807 5807 5811 5808 5811 5811 5809 5810 5811 5811
5811 5807 5804 5801 5799 5793 5788 5785 5781 5778 5775 5773 5773 5772 5773 5772 5770 5768 5768 5768 5771 5772 5774 5776 5779 5783 5787 5792 5796 5800 5803 5803 5805 5806 5804 5806 5805 5805 5808 5807 5805 5807 5810 5811 5813
5806 5802 5800 5797 5794 5788 5784 5780 5777 5773 5772 5769 5769 5770 5769 5769 5769 5767 5766 5767 5769 5771 5774 5777 5779 5782 5786 5791 5794 5796 5800 5801 5803 5804 5803 5804 5802 5802 5805 5804 5806 5808 5809 5811 5814
5802 5796 5794 5791 5789 5783 5780 5776 5773 5770 5767 5765 5765 5767 5767 5767 5767 5765 5765 5766 5768 5770 5773 5775 5778 5782 5786 5789 5790 5794 5798 5800 5802 5802 5801 5800 5801 5802 5804 5806 5807 5808 5808 5811 5813
5795 5790 5789 5786 5784 5779 5775 5771 5769 5766 5763 5762 5763 5765 5765 5764 5764 5764 5764 5765 5767 5768 5771 5773 5776 5780 5783 5786 5789 5794 5796 5798 5800 5800 5800 5802 5802 5803 5804 5805 5807 5809 5810 5812 5812
5789 5786 5783 5783 5779 5775 5772 5767 5765 5761 5759 5759 5760 5763 5763 5763 5762 5763 5763 5765 5765 5767 5769 5771 5774 5778 5781 5785 5789 5792 5795 5797 5798 5800 5803 5802 5804 5803 5805 5806 5806 5810 5811 5812 5813
5782 5781 5778 5777 5775 5770 5768 5763 5760 5756 5755 5756 5758 5760 5760 5762 5761 5762 5763 5764 5763 5765 5768 5770 5774 5778 5783 5786 5788 5791 5794 5797 5798 5800 5802 5803 5804 5804 5806 5807 5807 5809 5811 5811 5812
5776 5775 5773 5771 5770 5766 5763 5759 5755 5753 5753 5754 5756 5758 5759 5759 5760 5761 5762 5764 5764 5767 5770 5774 5776 5780 5784 5787 5790 5792 5795 5797 5798 5800 5802 5803 5805 5804 5806 5808 5809 5810 5811 5811 5811
5770 5770 5769 5767 5765 5762 5759 5754 5752 5751 5751 5752 5754 5756 5758 5759 5760 5760 5762 5764 5766 5768 5770 5774 5778 5781 5785 5788 5791 5792 5797 5798 5797 5799 5801 5803 5804 5804 5807 5808 5808 5809 5809 5810 5811
5764 5765 5764 5763 5760 5758 5754 5751 5750 5749 5749 5751 5752 5755 5756 5757 5758 5760 5762 5765 5767 5769 5772 5775 5779 5781 5784 5787 5792 5794 5795 5796 5797 5799 5800 5802 5803 5804 5806 5807 5808 5809 5809 5809 5809
5759 5760 5759 5759 5756 5754 5750 5750 5750 5749 5749 5750 5751 5752 5753 5754 5756 5758 5762 5764 5767 5768 5771 5775 5780 5783 5785 5788 5790 5793 5795 5797 5797 5798 5800 5801 5803 5804 5805 5806 5807 5808 5809 5809 5809
5753 5754 5754 5754 5752 5751 5747 5747 5746 5749 5749 5748 5749 5750 5752 5754 5757 5759 5763 5766 5767 5770 5774 5778 5777 5783 5785 5789 5791 5792 5794 5796 5798 5799 5801 5803 5804 5805 5805 5805 5806 5807 5807 5808 5807
5747 5748 5749 5749 5748 5746 5744 5745 5745 5745 5746 5746 5746 5748 5749 5753 5756 5758 5762 5763 5766 5770 5773 5778 5780 5781 5783 5787 5790 5792 5794 5796 5798 5799 5801 5802 5803 5804 5804 5804 5804 5805 5805 5806 5806
5740 5743 5743 5746 5744 5742 5741 5742 5742 5743 5744 5745 5745 5746 5749 5751 5754 5757 5761 5764 5767 5770 5773 5776 5780 5782 5784 5786 5789 5791 5793 5795 5797 5799 5801 5802 5806 5803 5803 5803 5803 5803 5803 5803 5802
5733 5738 5737 5740 5738 5737 5739 5738 5740 5742 5743 5745 5745 5746 5748 5750 5755 5758 5761 5764 5767 5769 5775 5778 5780 5782 5784 5786 5787 5790 5792 5794 5796 5798 5799 5800 5801 5800 5800 5800 5799 5799 5798 5797 5797
5726 5731 5731 5735 5732 5733 5735 5736 5739 5742 5741 5743 5745 5746 5748 5750 5753 5757 5760 5763 5766 5769 5773 5777 5778 5781 5782 5783 5785 5788 5790 5792 5793 5794 5794 5795 5797 5798 5796 5795 5794 5793 5792 5792 5791
5719 5723 5723 5728 5728 5730 5732 5734 5738 5739 5742 5744 5745 5746 5748 5751 5753 5756 5760 5763 5766 5769 5771 5775 5777 5779 5780 5781 5783 5786 5788 5789 5790 5790 5792 5792 5792 5792 5791 5789 5788 5787 5787 5786 5785
5711 5716 5718 5721 5723 5726 5730 5733 5736 5739 5740 5743 5744 5746 5748 5750 5753 5756 5759 5762 5765 5768 5771 5774 5776 5776 5778 5780 5781 5783 5785 5787 5786 5787 5788 5787 5787 5786 5784 5783 5783 5782 5782 5781 5780
5701 5706 5710 5717 5719 5723 5727 5730 5735 5737 5740 5742 5745 5747 5749 5751 5754 5756 5758 5761 5764 5766 5770 5771 5772 5774 5775 5777 5779 5780 5781 5783 5783 5783 5783 5783 5783 5781 5780 5780 5780 5780 5779 5778 5777
5694 5698 5703 5712 5714 5718 5723 5728 5732 5736 5739 5742 5745 5747 5749 5752 5754 5756 5758 5761 5762 5764 5767 5769 5770 5771 5773 5774 5775 5777 5779 5780 5780 5780 5780 5780 5779 5779 5778 5778 5778 5777 5776 5775 5773
5682 5688 5695 5704 5707 5713 5719 5725 5730 5734 5737 5741 5744 5746 5749 5751 5753 5755 5758 5760 5761 5762 5764 5765 5767 5769 5769 5771 5772 5773 5774 5775 5776 5777 5777 5778 5778 5777 5776 5775 5774 5773 5772 5770 5768
5672 5679 5687 5696 5700 5707 5715 5720 5726 5731 5735 5739 5742 5745 5747 5749 5751 5753 5754 5756 5758 5759 5760 5761 5762 5763 5765 5766 5768 5769 5770 5772 5773 5775 5774 5775 5776 5774 5773 5772 5771 5769 5767 5765 5762
5663 5670 5679 5688 5693 5703 5711 5716 5723 5727 5732 5736 5740 5743 5745 5746 5748 5749 5750 5752 5753 5754 5756 5757 5758 5760 5761 5764 5765 5767 5768 5769 5770 5771 5772 5772 5772 5770 5769 5768 5766 5764 5762 5759 5755
5653 5662 5672 5681 5690 5701 5707 5713 5719 5724 5729 5734 5738 5740 5742 5742 5743 5744 5745 5747 5748 5750 5752 5753 5755 5757 5759 5760 5762 5763 5764 5765 5766 5767 5768 5768 5765 5764 5763 5762 5760 5757 5754 5751 5747
5643 5653 5665 5671 5681 5693 5701 5710 5715 5721 5726 5731 5735 5737 5738 5738 5739 5740 5742 5743 5745 5747 5749 5751 5752 5754 5755 5757 5758 5760 5761 5762 5762 5763 5762 5763 5762 5758 5753 5754 5752 5749 5745 5741 5737
5635 5644 5656 5669 5679 5688 5694 5703 5711 5717 5724 5729 5732 5734 5734 5735 5736 5737 5738 5739 5741 5743 5745 5748 5750 5751 5752 5754 5755 5756 5757 5759 5758 5758 5757 5755 5756 5751 5747 5745 5743 5739 5736 5732 5728
5628 5638 5651 5663 5672 5682 5692 5700 5707 5714 5720 5725 5729 5730 5732 5732 5733 5734 5735 5736 5738 5740 5742 5744 5746 5748 5750 5750 5750 5752 5755 5753 5753 5752 5750 5747 5746 5743 5739 5736 5732 5729 5725 5721 5716